GW5240 Weather Reports


Display with metric or nautical units.
time (UTC)temp
F
wind
direction
speed
MPH
gust
MPH
rain 1hr
in
rain 24hr
in
rain mn
in
humidity
%
barometer
mb
20260506061148 37 181 0.0 2.0 0.00 0.00 0.00 57 1014.4
20260506060646 38 169 0.0 0.0 0.00 0.00 0.00 56 1014.4
20260506060143 38 180 2.0 3.0 0.00 0.00 0.00 55 1014.3
20260506051115 39 164 1.0 2.0 0.00 0.00 0.00 55 1014.0
20260506050613 39 198 0.0 2.0 0.00 0.00 0.00 54 1013.9
20260506050110 39 341 1.0 2.0 0.00 0.00 0.00 55 1013.7
20260506045103 39 282 0.0 2.0 0.00 0.00 0.00 54 1013.8
20260506044602 40 181 0.0 0.0 0.00 0.00 0.00 54 1013.7
20260506044058 40 238 1.0 2.0 0.00 0.00 0.00 54 1013.8
20260506043555 40 117 2.0 2.0 0.00 0.00 0.00 53 1013.7
20260506043053 40 175 0.0 0.0 0.00 0.00 0.00 54 1013.5
20260506042552 40 179 2.0 3.0 0.00 0.00 0.00 54 1013.6
20260506042049 40 183 1.0 2.0 0.00 0.00 0.00 53 1013.6
20260506041548 40 214 0.0 2.0 0.00 0.00 0.00 54 1013.6
20260506041044 41 273 2.0 3.0 0.00 0.00 0.00 53 1013.7
20260506040542 41 175 0.0 2.0 0.00 0.00 0.00 51 1013.6
20260506040038 41 327 3.0 3.0 0.00 0.00 0.00 51 1013.7
20260506035535 41 178 2.0 3.0 0.00 0.00 0.00 51 1013.8
20260506035032 41 307 4.0 5.0 0.00 0.00 0.00 51 1013.7
20260506034529 41 160 1.0 2.0 0.00 0.00 0.00 51 1013.4
20260506034026 42 160 2.0 2.0 0.00 0.00 0.00 50 1013.7
20260506033523 42 156 0.0 2.0 0.00 0.00 0.00 51 1013.4
20260506033021 42 25 2.0 3.0 0.00 0.00 0.00 50 1013.6
20260506032518 42 180 0.0 0.0 0.00 0.00 0.00 50 1013.4
20260506032014 43 143 4.0 5.0 0.00 0.00 0.00 50 1013.3
20260506031512 43 298 2.0 3.0 0.00 0.00 0.00 50 1013.4
20260506031009 43 168 2.0 3.0 0.00 0.00 0.00 50 1013.5
20260506030507 43 244 2.0 3.0 0.00 0.00 0.00 50 1013.5
20260506030004 43 134 0.0 2.0 0.00 0.00 0.00 50 1013.2
20260506025500 43 15 2.0 3.0 0.00 0.00 0.00 50 1013.2
20260506024957 43 347 4.0 7.0 0.00 0.00 0.00 50 1012.9
20260506024454 43 173 0.0 0.0 0.00 0.00 0.00 50 1012.8
20260506023949 43 205 1.0 2.0 0.00 0.00 0.00 49 1012.7
20260506023447 44 151 1.0 2.0 0.00 0.00 0.00 49 1012.7
20260506022943 44 194 1.0 2.0 0.00 0.00 0.00 48 1012.4
20260506022441 44 211 0.0 2.0 0.00 0.00 0.00 48 1012.4
20260506021939 44 210 0.0 0.0 0.00 0.00 0.00 47 1012.5
20260506021436 44 192 3.0 5.0 0.00 0.00 0.00 46 1012.4
20260506020933 44 234 2.0 3.0 0.00 0.00 0.00 46 1012.2
20260506020431 45 138 0.0 0.0 0.00 0.00 0.00 46 1012.2
20260506015927 45 191 2.0 3.0 0.00 0.00 0.00 45 1012.1
20260506015425 45 273 3.0 3.0 0.00 0.00 0.00 45 1012.0
20260506014922 45 280 3.0 3.0 0.00 0.00 0.00 45 1012.0
20260506014419 45 264 2.0 2.0 0.00 0.00 0.00 44 1012.1
20260506013915 46 274 5.0 7.0 0.00 0.00 0.00 45 1012.1
20260506013414 46 264 1.0 2.0 0.00 0.00 0.00 44 1011.7
20260506012909 46 347 3.0 5.0 0.00 0.00 0.00 44 1011.7
20260506012406 46 87 4.0 5.0 0.00 0.00 0.00 44 1011.6
20260506011903 46 184 0.0 2.0 0.00 0.00 0.00 44 1011.7
20260506011400 47 185 2.0 2.0 0.00 0.00 0.00 43 1011.6
20260506010857 47 235 6.0 9.0 0.00 0.00 0.00 43 1011.5
20260506010355 47 292 6.0 10.0 0.00 0.00 0.00 43 1011.4
20260506005852 47 300 2.0 3.0 0.00 0.00 0.00 43 1011.5
20260506005349 48 214 2.0 5.0 0.00 0.00 0.00 43 1011.4
20260506004844 48 182 1.0 2.0 0.00 0.00 0.00 42 1011.3
20260506004343 48 166 4.0 5.0 0.00 0.00 0.00 40 1011.4
20260506003839 49 9 6.0 9.0 0.00 0.00 0.00 40 1011.5
20260506003335 49 274 1.0 3.0 0.00 0.00 0.00 40 1011.0
20260506002831 49 301 4.0 5.0 0.00 0.00 0.00 40 1011.2
20260506002328 49 337 3.0 5.0 0.00 0.00 0.00 40 1011.2
20260506001823 49 323 7.0 14.0 0.00 0.00 0.00 39 1011.1
20260506001321 49 13 3.0 3.0 0.00 0.00 0.00 40 1011.0
20260506000818 49 144 4.0 7.0 0.00 0.00 0.00 40 1010.8
20260506000316 49 291 3.0 3.0 0.00 0.00 0.00 39 1010.8
20260505235812 49 173 2.0 3.0 0.00 0.00 0.00 39 1010.8
20260505235310 49 289 5.0 7.0 0.00 0.00 0.00 39 1011.0
20260505234806 49 215 2.0 2.0 0.00 0.00 0.00 40 1010.8
20260505234304 49 7 4.0 5.0 0.00 0.00 0.00 39 1010.9
20260505233801 49 320 3.0 3.0 0.00 0.00 0.00 40 1010.7
20260505233259 49 335 5.0 9.0 0.00 0.00 0.00 39 1010.7
20260505232755 49 359 5.0 5.0 0.00 0.00 0.00 40 1010.8
20260505232253 49 177 0.0 2.0 0.00 0.00 0.00 40 1010.8
20260505231749 49 247 1.0 2.0 0.00 0.00 0.00 41 1010.8
20260505231248 49 272 2.0 5.0 0.00 0.00 0.00 40 1010.9
20260505230746 50 166 2.0 3.0 0.00 0.00 0.00 39 1010.8
20260505230242 50 242 2.0 2.0 0.00 0.00 0.00 39 1010.8
20260505225739 50 359 3.0 3.0 0.00 0.00 0.00 39 1010.9
20260505225236 51 204 3.0 5.0 0.00 0.00 0.00 39 1010.7
20260505224731 53 337 4.0 5.0 0.00 0.00 0.00 36 1010.7
20260505224229 52 349 4.0 7.0 0.00 0.00 0.00 37 1010.7
20260505223727 53 182 5.0 9.0 0.00 0.00 0.00 37 1010.8
20260505223223 52 192 4.0 5.0 0.00 0.00 0.00 39 1010.7
20260505222719 51 217 3.0 3.0 0.00 0.00 0.00 39 1010.7
20260505222215 51 168 4.0 7.0 0.00 0.00 0.00 39 1010.7
20260505221713 51 137 3.0 3.0 0.00 0.00 0.00 39 1010.7
20260505221209 50 322 3.0 5.0 0.00 0.00 0.00 39 1010.8
20260505220706 51 9 4.0 5.0 0.00 0.00 0.00 40 1010.8
20260505220204 51 257 5.0 9.0 0.00 0.00 0.00 39 1010.8
20260505215701 50 37 8.0 10.0 0.00 0.00 0.00 39 1011.0
20260505215159 50 310 4.0 5.0 0.00 0.00 0.00 40 1010.9
20260505214657 50 221 1.0 2.0 0.00 0.00 0.00 39 1010.7
20260505214154 50 57 4.0 5.0 0.00 0.00 0.00 39 1011.0
20260505213651 50 329 10.0 15.0 0.00 0.00 0.00 38 1010.8
20260505213148 51 0 5.0 7.0 0.00 0.00 0.00 38 1010.9
20260505212644 51 217 6.0 7.0 0.00 0.00 0.00 39 1010.7
20260505212142 51 72 3.0 3.0 0.00 0.00 0.00 38 1010.8
20260505211638 51 0 4.0 5.0 0.00 0.00 0.00 38 1010.8
20260505211136 51 172 0.0 2.0 0.00 0.00 0.00 41 1010.7
20260505210632 51 328 2.0 3.0 0.00 0.00 0.00 38 1010.9
20260505210129 51 187 2.0 3.0 0.00 0.00 0.00 38 1010.9
20260505205626 51 198 2.0 2.0 0.00 0.00 0.00 39 1010.9
20260505205125 51 154 2.0 2.0 0.00 0.00 0.00 38 1011.0
20260505204621 51 358 2.0 3.0 0.00 0.00 0.00 40 1011.1
20260505204119 51 322 2.0 3.0 0.00 0.00 0.00 40 1010.9
20260505203615 51 354 5.0 7.0 0.00 0.00 0.00 39 1011.0
20260505203113 51 12 5.0 5.0 0.00 0.00 0.00 39 1011.0
20260505202608 51 356 2.0 7.0 0.00 0.00 0.00 38 1011.0
20260505202104 52 283 7.0 10.0 0.00 0.00 0.00 37 1011.1
20260505201601 51 333 4.0 9.0 0.00 0.00 0.00 38 1011.1
20260505201059 51 220 2.0 3.0 0.00 0.00 0.00 39 1011.2
20260505200557 51 335 3.0 5.0 0.00 0.00 0.00 39 1011.3
20260505200053 52 262 4.0 5.0 0.00 0.00 0.00 38 1011.0
20260505195549 52 250 2.0 3.0 0.00 0.00 0.00 38 1011.1
20260505195047 52 112 2.0 2.0 0.00 0.00 0.00 41 1011.1
20260505194544 51 265 4.0 5.0 0.00 0.00 0.00 39 1011.2
20260505194039 51 158 2.0 3.0 0.00 0.00 0.00 39 1011.0
20260505193537 52 230 5.0 9.0 0.00 0.00 0.00 38 1011.1
20260505193034 52 7 7.0 9.0 0.00 0.00 0.00 37 1010.7
20260505192532 53 194 3.0 5.0 0.00 0.00 0.00 37 1011.0
20260505192030 54 188 2.0 3.0 0.00 0.00 0.00 37 1011.0
20260505191528 53 40 7.0 10.0 0.00 0.00 0.00 37 1011.1
20260505191026 53 240 3.0 5.0 0.00 0.00 0.00 36 1011.1
20260505190520 53 275 10.0 14.0 0.00 0.00 0.00 36 1011.0
20260505190016 53 295 4.0 9.0 0.00 0.00 0.00 37 1011.0
20260505185513 53 258 6.0 10.0 0.00 0.00 0.00 37 1011.1
20260505185009 52 282 3.0 3.0 0.00 0.00 0.00 38 1011.2
20260505184507 50 252 3.0 3.0 0.00 0.00 0.00 40 1011.1
20260505184003 50 334 3.0 5.0 0.00 0.00 0.00 39 1011.1
20260505183500 50 137 4.0 5.0 0.00 0.00 0.00 39 1011.0
20260505182956 51 199 2.0 3.0 0.00 0.00 0.00 39 1011.0
20260505182454 51 146 0.0 2.0 0.00 0.00 0.00 39 1011.0
20260505181950 50 299 2.0 3.0 0.00 0.00 0.00 40 1011.1
20260505181447 51 137 2.0 3.0 0.00 0.00 0.00 39 1011.1
20260505180944 51 114 6.0 9.0 0.00 0.00 0.00 38 1011.1
20260505180440 51 10 8.0 10.0 0.00 0.00 0.00 38 1011.0
20260505175937 51 188 2.0 2.0 0.00 0.00 0.00 38 1011.2
20260505175433 51 1 3.0 5.0 0.00 0.00 0.00 38 1011.2
20260505174930 51 333 7.0 9.0 0.00 0.00 0.00 36 1011.2
20260505174427 50 359 3.0 3.0 0.00 0.00 0.00 38 1011.3
20260505173923 51 189 3.0 7.0 0.00 0.00 0.00 37 1011.1
20260505173420 50 158 2.0 5.0 0.00 0.00 0.00 39 1011.0
20260505172917 50 13 3.0 3.0 0.00 0.00 0.00 39 1011.2
20260505172415 49 205 2.0 3.0 0.00 0.00 0.00 42 1011.3
20260505171914 50 7 2.0 3.0 0.00 0.00 0.00 38 1011.3
20260505171411 50 92 4.0 7.0 0.00 0.00 0.00 39 1011.2
20260505170908 50 206 1.0 3.0 0.00 0.00 0.00 39 1011.4
20260505170405 49 350 5.0 7.0 0.00 0.00 0.00 40 1011.2
20260505165900 48 193 2.0 2.0 0.00 0.00 0.00 40 1011.3
20260505165356 49 187 4.0 5.0 0.00 0.00 0.00 39 1011.3
20260505164852 50 311 9.0 12.0 0.00 0.00 0.00 36 1011.4
20260505164348 51 196 4.0 5.0 0.00 0.00 0.00 36 1011.3
20260505163847 51 196 2.0 2.0 0.00 0.00 0.00 37 1011.5
20260505163346 50 191 3.0 5.0 0.00 0.00 0.00 39 1011.2
20260505162844 50 173 1.0 2.0 0.00 0.00 0.00 39 1011.3
20260505162339 50 263 3.0 9.0 0.00 0.00 0.00 37 1011.3
20260505161837 48 289 4.0 5.0 0.00 0.00 0.00 39 1011.4
20260505161333 48 271 6.0 9.0 0.00 0.00 0.00 40 1011.1
20260505160831 49 225 2.0 3.0 0.00 0.00 0.00 37 1011.2
20260505160329 49 69 3.0 5.0 0.00 0.00 0.00 38 1011.2
20260505153308 48 46 6.0 9.0 0.00 0.00 0.00 40 1011.2
20260505152805 48 27 3.0 3.0 0.00 0.00 0.00 40 1011.4
20260505152304 48 91 2.0 3.0 0.00 0.00 0.00 40 1011.4
20260505151755 49 331 3.0 5.0 0.00 0.00 0.00 40 1011.1
20260505151253 48 210 5.0 7.0 0.00 0.00 0.00 42 1011.2
20260505150750 48 347 5.0 7.0 0.00 0.00 0.00 40 1011.3
20260505150247 47 234 2.0 3.0 0.00 0.00 0.00 45 1011.2
20260505140212 44 20 3.0 5.0 0.00 0.00 0.00 44 1010.7
20260505130136 40 247 2.0 2.0 0.00 0.00 0.00 47 1010.4
20260505124625 40 179 2.0 3.0 0.00 0.00 0.00 49 1010.1
20260505124121 40 14 5.0 9.0 0.00 0.00 0.00 49 1010.0
20260505123617 40 166 5.0 7.0 0.00 0.00 0.00 51 1010.1
20260505123114 40 60 4.0 5.0 0.00 0.00 0.00 52 1009.9
20260505122611 40 14 8.0 12.0 0.00 0.00 0.00 51 1009.8
20260505122108 39 48 6.0 10.0 0.00 0.00 0.00 54 1009.7
20260505121604 39 163 1.0 2.0 0.00 0.00 0.00 54 1009.6
20260505121101 39 17 2.0 3.0 0.00 0.00 0.00 54 1009.6
20260505120557 39 193 1.0 2.0 0.00 0.00 0.00 56 1009.6
20260505120053 39 268 2.0 5.0 0.00 0.00 0.00 57 1009.4
20260505115547 38 185 1.0 2.0 0.00 0.00 0.00 58 1009.2
20260505115045 38 168 1.0 3.0 0.00 0.00 0.00 58 1009.3
20260505114542 38 211 1.0 2.0 0.00 0.00 0.00 60 1009.0
20260505114038 38 291 5.0 7.0 0.00 0.00 0.00 61 1008.9
20260505113535 38 165 0.0 0.0 0.00 0.00 0.00 61 1009.0
20260505113032 38 171 0.0 0.0 0.00 0.00 0.00 62 1009.0
20260505112528 38 200 2.0 5.0 0.00 0.00 0.00 62 1008.7
20260505112027 38 187 0.0 0.0 0.00 0.00 0.00 63 1008.8
20260505111525 38 231 2.0 2.0 0.00 0.00 0.00 64 1008.6
20260505111022 38 182 2.0 2.0 0.00 0.00 0.00 64 1008.7
20260505110519 38 199 2.0 2.0 0.00 0.00 0.00 64 1008.6
20260505101951 39 296 3.0 5.0 0.00 0.00 0.00 63 1008.5
20260505101449 39 321 2.0 2.0 0.00 0.00 0.00 63 1008.4
20260505100945 39 173 0.0 0.0 0.00 0.00 0.00 63 1008.4
20260505100443 39 158 0.0 0.0 0.00 0.00 0.00 63 1008.3
20260505095939 39 188 3.0 5.0 0.00 0.00 0.00 62 1008.3
20260505095436 39 219 0.0 0.0 0.00 0.00 0.00 62 1008.3
20260505094932 39 269 2.0 3.0 0.00 0.00 0.00 62 1008.2
20260505094429 40 157 0.0 0.0 0.00 0.00 0.00 62 1008.1
20260505093925 40 193 1.0 2.0 0.00 0.00 0.00 61 1008.3
20260505093422 40 284 1.0 2.0 0.00 0.00 0.00 61 1008.2
20260505092919 40 194 1.0 2.0 0.00 0.00 0.00 61 1008.0
20260505092417 40 242 1.0 2.0 0.00 0.00 0.00 60 1008.2
20260505091914 40 140 3.0 3.0 0.00 0.00 0.00 60 1007.9
20260505091412 40 325 4.0 5.0 0.00 0.00 0.00 60 1008.0
20260505090909 40 170 0.0 0.0 0.00 0.00 0.00 60 1007.8
20260505090408 40 184 1.0 2.0 0.00 0.00 0.00 60 1007.9
20260505085904 40 223 0.0 2.0 0.00 0.00 0.00 59 1007.9
20260505085402 40 168 2.0 3.0 0.00 0.00 0.00 58 1007.8
20260505084900 40 242 1.0 2.0 0.00 0.00 0.00 58 1007.8
20260505084358 40 164 0.0 0.0 0.00 0.00 0.00 58 1007.6
20260505083856 40 290 3.0 5.0 0.00 0.00 0.00 58 1007.5
20260505083353 41 177 0.0 0.0 0.00 0.00 0.00 57 1007.6
20260505082849 41 320 4.0 5.0 0.00 0.00 0.00 56 1007.4
20260505082345 41 139 2.0 3.0 0.00 0.00 0.00 56 1007.4
20260505081842 41 128 2.0 2.0 0.00 0.00 0.00 56 1007.4
20260505081339 41 173 2.0 2.0 0.00 0.00 0.00 56 1007.3
20260505080836 41 196 1.0 2.0 0.00 0.00 0.00 56 1007.3
20260505080331 41 190 2.0 2.0 0.00 0.00 0.00 56 1007.0
20260505075827 41 166 2.0 3.0 0.00 0.00 0.00 56 1007.1
20260505075324 41 212 2.0 3.0 0.00 0.00 0.00 56 1007.0
20260505074822 41 208 2.0 2.0 0.00 0.00 0.00 56 1006.9
20260505074319 42 198 1.0 2.0 0.00 0.00 0.00 55 1007.2
20260505073816 42 248 2.0 5.0 0.00 0.00 0.00 54 1007.1
20260505073314 42 304 2.0 3.0 0.00 0.00 0.00 54 1007.2
20260505072811 42 233 2.0 3.0 0.00 0.00 0.00 54 1007.0
20260505072307 42 171 1.0 2.0 0.00 0.00 0.00 55 1007.1
20260505071802 42 175 0.0 0.0 0.00 0.00 0.00 55 1007.2
20260505071259 42 226 2.0 2.0 0.00 0.00 0.00 54 1007.1
20260505070757 42 244 1.0 2.0 0.00 0.00 0.00 54 1007.2
20260505070254 42 121 2.0 2.0 0.00 0.00 0.00 54 1007.2
20260505065748 42 175 0.0 0.0 0.00 0.00 0.00 54 1007.2
20260505065246 42 185 2.0 3.0 0.00 0.00 0.00 54 1007.3
20260505064743 42 210 4.0 5.0 0.00 0.00 0.00 54 1007.3
20260505064240 43 176 2.0 3.0 0.00 0.00 0.00 54 1007.1
20260505063738 43 173 0.0 0.0 0.00 0.00 0.00 55 1007.0
20260505063234 43 277 4.0 5.0 0.00 0.00 0.00 54 1007.1
20260505062730 43 245 2.0 3.0 0.00 0.00 0.00 54 1007.3
20260505062228 43 259 0.0 2.0 0.00 0.00 0.00 55 1007.2
20260505061725 43 321 3.0 5.0 0.00 0.00 0.00 55 1007.2